DAL2881 KPWM-KJFK

Flight info

Callsign DAL2881
Flight time 0h 56m
Altitude 34000
Route DCT JJIMY DCT PVD PARCH4
Aircraft A321/M-V/N

Departure

Time 2026-05-06 19:25
Airport Portland International Jetport (KPWM)

Arrival

Time 2026-05-06 20:21
Airport John F. Kennedy International Airport (KJFK)
Time Latitude Longitude Altitude Speed Heading
2026-05-06 18:55 43.64704 -70.31259 71 ft 0 kts 58°
2026-05-06 19:01 43.64704 -70.31260 65 ft 0 kts 58°
2026-05-06 19:12 43.64704 -70.31261 64 ft 0 kts 58°
2026-05-06 19:13 43.64701 -70.31267 53 ft 4 kts 59°
2026-05-06 19:13 43.64686 -70.31298 58 ft 4 kts 45°
2026-05-06 19:13 43.64672 -70.31318 63 ft 4 kts 30°
2026-05-06 19:13 43.64671 -70.31320 64 ft 0 kts 10°
2026-05-06 19:14 43.64704 -70.31259 56 ft 0 kts 58°
2026-05-06 19:16 43.64692 -70.31288 65 ft 4 kts 52°
2026-05-06 19:16 43.64676 -70.31311 60 ft 2 kts 45°
2026-05-06 19:16 43.64662 -70.31319 61 ft 4 kts
2026-05-06 19:16 43.64636 -70.31328 58 ft 4 kts 26°
2026-05-06 19:17 43.64619 -70.31343 65 ft 1 kts 59°
2026-05-06 19:18 43.64619 -70.31344 65 ft 0 kts 59°
2026-05-06 19:20 43.64623 -70.31342 65 ft 1 kts 30°
2026-05-06 19:20 43.64628 -70.31353 66 ft 2 kts 286°
2026-05-06 19:20 43.64617 -70.31357 64 ft 0 kts 186°
2026-05-06 19:21 43.64554 -70.31360 69 ft 16 kts 181°
2026-05-06 19:21 43.64510 -70.31455 75 ft 12 kts 277°
2026-05-06 19:22 43.64520 -70.31613 76 ft 24 kts 274°
2026-05-06 19:22 43.64538 -70.31881 79 ft 27 kts 275°
2026-05-06 19:22 43.64552 -70.32108 77 ft 21 kts 275°
2026-05-06 19:22 43.64565 -70.32294 84 ft 17 kts 275°
2026-05-06 19:23 43.64578 -70.32469 90 ft 19 kts 281°
2026-05-06 19:23 43.64649 -70.32499 89 ft 10 kts
2026-05-06 19:23 43.64674 -70.32551 85 ft 7 kts 259°
2026-05-06 19:23 43.64614 -70.32587 90 ft 10 kts 173°
2026-05-06 19:24 43.64576 -70.32553 92 ft 3 kts 120°
2026-05-06 19:24 43.64579 -70.32500 89 ft 12 kts 89°
2026-05-06 19:24 43.64550 -70.32055 80 ft 83 kts 95°
2026-05-06 19:24 43.64477 -70.30977 61 ft 140 kts 96°
2026-05-06 19:25 43.64389 -70.29485 382 ft 157 kts 97°
2026-05-06 19:25 43.64376 -70.28011 1070 ft 157 kts 102°
2026-05-06 19:25 43.64550 -70.26346 1426 ft 193 kts 83°
2026-05-06 19:25 43.65227 -70.24575 1643 ft 223 kts 64°
2026-05-06 19:26 43.66138 -70.22715 1771 ft 244 kts 60°
2026-05-06 19:26 43.66833 -70.20535 1879 ft 256 kts 86°
2026-05-06 19:26 43.66779 -70.18053 2156 ft 263 kts 113°
2026-05-06 19:26 43.66253 -70.15636 2847 ft 270 kts 115°
2026-05-06 19:27 43.65639 -70.13124 3611 ft 271 kts 126°
2026-05-06 19:27 43.64466 -70.11235 4382 ft 253 kts 158°
2026-05-06 19:27 43.62908 -70.10471 5156 ft 236 kts 185°
2026-05-06 19:27 43.61304 -70.10617 6022 ft 230 kts 193°
2026-05-06 19:28 43.59705 -70.10856 6885 ft 232 kts 193°
2026-05-06 19:28 43.58141 -70.11305 7703 ft 229 kts 205°
2026-05-06 19:28 43.56759 -70.12359 8510 ft 228 kts 219°
2026-05-06 19:28 43.55642 -70.13919 9322 ft 230 kts 228°
2026-05-06 19:29 43.54592 -70.15603 10086 ft 233 kts 228°
2026-05-06 19:29 43.53487 -70.17371 10386 ft 254 kts 228°
2026-05-06 19:29 43.52279 -70.19300 10577 ft 277 kts 228°
2026-05-06 19:29 43.50990 -70.21352 11054 ft 287 kts 228°
2026-05-06 19:30 43.49673 -70.23447 11728 ft 291 kts 229°
2026-05-06 19:30 43.48335 -70.25570 12418 ft 295 kts 229°
2026-05-06 19:30 43.46980 -70.27721 13091 ft 300 kts 229°
2026-05-06 19:30 43.45607 -70.29904 13755 ft 304 kts 230°
2026-05-06 19:31 43.44219 -70.32116 14380 ft 307 kts 230°
2026-05-06 19:31 43.42796 -70.34378 15014 ft 310 kts 230°
2026-05-06 19:31 43.39944 -70.38895 16238 ft 316 kts 230°
2026-05-06 19:32 43.38494 -70.41177 16853 ft 319 kts 230°
2026-05-06 19:32 43.37025 -70.43484 17435 ft 322 kts 230°
2026-05-06 19:32 43.35546 -70.45815 17996 ft 325 kts 230°
2026-05-06 19:32 43.34053 -70.48167 18539 ft 328 kts 230°
2026-05-06 19:33 43.32541 -70.50541 19030 ft 331 kts 230°
2026-05-06 19:33 43.31535 -70.52120 19345 ft 333 kts 230°
2026-05-06 19:33 43.29482 -70.55340 19983 ft 337 kts 230°
2026-05-06 19:33 43.28458 -70.56947 20285 ft 339 kts 230°
2026-05-06 19:34 43.26265 -70.60098 20901 ft 345 kts 223°
2026-05-06 19:34 43.24452 -70.62274 21387 ft 348 kts 223°
2026-05-06 19:34 43.22622 -70.64466 21907 ft 351 kts 223°
2026-05-06 19:34 43.20775 -70.66678 22394 ft 354 kts 223°
2026-05-06 19:35 43.18937 -70.68879 22874 ft 357 kts 223°
2026-05-06 19:35 43.17666 -70.70397 23192 ft 360 kts 222°
2026-05-06 19:35 43.14878 -70.72916 23712 ft 368 kts 211°
2026-05-06 19:35 43.12600 -70.74543 24117 ft 370 kts 211°
2026-05-06 19:36 43.11056 -70.75646 24381 ft 371 kts 211°
2026-05-06 19:36 43.08761 -70.77289 24783 ft 373 kts 211°
2026-05-06 19:36 43.05709 -70.79480 25306 ft 376 kts 211°
2026-05-06 19:36 43.03388 -70.81147 25696 ft 378 kts 211°
2026-05-06 19:37 43.01056 -70.82820 26073 ft 380 kts 211°
2026-05-06 19:37 42.99470 -70.83956 26332 ft 381 kts 211°
2026-05-06 19:37 42.97115 -70.85643 26671 ft 384 kts 211°
2026-05-06 19:37 42.94745 -70.87335 27027 ft 386 kts 211°
2026-05-06 19:38 42.92355 -70.89039 27439 ft 388 kts 211°
2026-05-06 19:38 42.89959 -70.90744 27841 ft 389 kts 211°
2026-05-06 19:38 42.87554 -70.92456 28236 ft 391 kts 211°
2026-05-06 19:38 42.85140 -70.94173 28588 ft 393 kts 211°
2026-05-06 19:39 42.82666 -70.95794 28930 ft 398 kts 206°
2026-05-06 19:39 42.80085 -70.97069 29213 ft 401 kts 205°
2026-05-06 19:39 42.77409 -70.98373 29473 ft 404 kts 205°
2026-05-06 19:39 42.74792 -70.99648 29770 ft 407 kts 205°
2026-05-06 19:40 42.72118 -71.00948 30066 ft 409 kts 205°
2026-05-06 19:40 42.69433 -71.02252 30335 ft 411 kts 205°
2026-05-06 19:40 42.66736 -71.03562 30656 ft 411 kts 205°
2026-05-06 19:40 42.64046 -71.04865 31050 ft 410 kts 205°
2026-05-06 19:41 42.61360 -71.06165 31395 ft 410 kts 206°
2026-05-06 19:41 42.58671 -71.07468 31746 ft 410 kts 206°
2026-05-06 19:41 42.55989 -71.08768 32125 ft 409 kts 206°
2026-05-06 19:41 42.53306 -71.10064 32516 ft 409 kts 206°
2026-05-06 19:42 42.50633 -71.11356 32906 ft 408 kts 207°
2026-05-06 19:42 42.47963 -71.12648 33315 ft 407 kts 207°
2026-05-06 19:42 42.45301 -71.13935 33699 ft 406 kts 207°
2026-05-06 19:42 42.42638 -71.15221 33823 ft 406 kts 208°
2026-05-06 19:43 42.37324 -71.17561 33848 ft 400 kts 205°
2026-05-06 19:43 42.31974 -71.19621 33861 ft 400 kts 205°
2026-05-06 19:44 42.26628 -71.21661 33822 ft 399 kts 205°
2026-05-06 19:44 42.21271 -71.23762 33860 ft 402 kts 206°
2026-05-06 19:45 42.15910 -71.25887 33868 ft 402 kts 206°
2026-05-06 19:45 42.10546 -71.28015 33877 ft 402 kts 206°
2026-05-06 19:46 42.05172 -71.30141 33857 ft 403 kts 206°
2026-05-06 19:46 41.99787 -71.32263 33864 ft 403 kts 206°
2026-05-06 19:47 41.94398 -71.34373 33880 ft 404 kts 206°
2026-05-06 19:47 41.88957 -71.36519 33363 ft 413 kts 206°
2026-05-06 19:48 41.86186 -71.37611 32914 ft 417 kts 206°
2026-05-06 19:48 41.83391 -71.38707 32480 ft 419 kts 205°
2026-05-06 19:48 41.80584 -71.39802 32048 ft 421 kts 205°
2026-05-06 19:48 41.77773 -71.40893 31621 ft 422 kts 204°
2026-05-06 19:49 41.74996 -71.42009 31203 ft 419 kts 207°
2026-05-06 19:49 41.72364 -71.43582 30788 ft 411 kts 216°
2026-05-06 19:49 41.70000 -71.45681 30366 ft 406 kts 224°
2026-05-06 19:49 41.67837 -71.48104 29965 ft 407 kts 225°
2026-05-06 19:50 41.65663 -71.50549 29489 ft 409 kts 225°
2026-05-06 19:50 41.63486 -71.52982 29013 ft 405 kts 225°
2026-05-06 19:50 41.61343 -71.55364 28638 ft 397 kts 224°
2026-05-06 19:50 41.59231 -71.57703 28283 ft 391 kts 224°
2026-05-06 19:51 41.57149 -71.60012 27921 ft 387 kts 224°
2026-05-06 19:51 41.55085 -71.62305 27555 ft 385 kts 224°
2026-05-06 19:51 41.53032 -71.64587 27180 ft 383 kts 225°
2026-05-06 19:51 41.50994 -71.66854 26823 ft 381 kts 225°
2026-05-06 19:52 41.48960 -71.69114 26470 ft 379 kts 225°
2026-05-06 19:52 41.46909 -71.71388 26143 ft 377 kts 224°
2026-05-06 19:52 41.44922 -71.73585 25876 ft 376 kts 224°
2026-05-06 19:52 41.42915 -71.75804 25598 ft 374 kts 224°
2026-05-06 19:53 41.40915 -71.78020 25332 ft 373 kts 224°
2026-05-06 19:53 41.38925 -71.80227 25076 ft 372 kts 224°
2026-05-06 19:53 41.36939 -71.82423 24820 ft 370 kts 224°
2026-05-06 19:53 41.34961 -71.84605 24564 ft 369 kts 224°
2026-05-06 19:54 41.32987 -71.86778 24310 ft 368 kts 224°
2026-05-06 19:54 41.31020 -71.88944 24058 ft 367 kts 224°
2026-05-06 19:54 41.29056 -71.91103 23832 ft 365 kts 224°
2026-05-06 19:54 41.27102 -71.93245 23559 ft 363 kts 223°
2026-05-06 19:55 41.25157 -71.95380 23282 ft 362 kts 223°
2026-05-06 19:55 41.23221 -71.97507 22986 ft 359 kts 223°
2026-05-06 19:55 41.21326 -71.99585 22690 ft 348 kts 223°
2026-05-06 19:55 41.19483 -72.01597 22370 ft 338 kts 223°
2026-05-06 19:56 41.17686 -72.03558 21996 ft 331 kts 224°
2026-05-06 19:56 41.15928 -72.05479 21638 ft 324 kts 224°
2026-05-06 19:56 41.14211 -72.07360 21291 ft 317 kts 224°
2026-05-06 19:56 41.12541 -72.09233 20928 ft 310 kts 227°
2026-05-06 19:57 41.11095 -72.11300 20590 ft 302 kts 234°
2026-05-06 19:57 41.09917 -72.13566 20250 ft 295 kts 241°
2026-05-06 19:57 41.09008 -72.15980 19908 ft 290 kts 248°
2026-05-06 19:57 41.08342 -72.18480 19562 ft 286 kts 251°
2026-05-06 19:58 41.07728 -72.20967 19230 ft 283 kts 251°
2026-05-06 19:58 41.07116 -72.23434 18894 ft 281 kts 250°
2026-05-06 19:58 41.06506 -72.25884 18600 ft 279 kts 250°
2026-05-06 19:58 41.05903 -72.28316 18282 ft 277 kts 250°
2026-05-06 19:59 41.05303 -72.30734 17918 ft 276 kts 250°
2026-05-06 19:59 41.04704 -72.33143 17559 ft 274 kts 250°
2026-05-06 19:59 41.04109 -72.35533 17198 ft 273 kts 250°
2026-05-06 19:59 41.03515 -72.37916 16811 ft 272 kts 250°
2026-05-06 20:00 41.02923 -72.40287 16452 ft 270 kts 250°
2026-05-06 20:00 41.02334 -72.42642 16108 ft 269 kts 250°
2026-05-06 20:00 41.01748 -72.44990 15751 ft 268 kts 250°
2026-05-06 20:00 41.01166 -72.47326 15415 ft 267 kts 250°
2026-05-06 20:01 41.00585 -72.49654 15075 ft 266 kts 250°
2026-05-06 20:01 41.00003 -72.51968 14735 ft 265 kts 250°
2026-05-06 20:01 40.99422 -72.54275 14411 ft 263 kts 250°
2026-05-06 20:01 40.98843 -72.56568 14083 ft 262 kts 250°
2026-05-06 20:02 40.98267 -72.58856 13761 ft 262 kts 250°
2026-05-06 20:02 40.97695 -72.61132 13432 ft 260 kts 249°
2026-05-06 20:02 40.97127 -72.63396 13067 ft 258 kts 249°
2026-05-06 20:02 40.96562 -72.65642 12702 ft 257 kts 249°
2026-05-06 20:03 40.96000 -72.67869 12350 ft 254 kts 249°
2026-05-06 20:03 40.95442 -72.70069 12062 ft 250 kts 249°
2026-05-06 20:03 40.94891 -72.72245 12030 ft 251 kts 249°
2026-05-06 20:03 40.94336 -72.74440 12031 ft 252 kts 249°
2026-05-06 20:04 40.93776 -72.76636 12029 ft 251 kts 248°
2026-05-06 20:04 40.93025 -72.78716 11955 ft 251 kts 238°
2026-05-06 20:04 40.91997 -72.80528 11756 ft 249 kts 229°
2026-05-06 20:04 40.90709 -72.82053 11555 ft 250 kts 219°
2026-05-06 20:05 40.89282 -72.83411 11305 ft 249 kts 219°
2026-05-06 20:05 40.87899 -72.84735 11074 ft 248 kts 220°
2026-05-06 20:05 40.86511 -72.86067 10824 ft 246 kts 220°
2026-05-06 20:05 40.85131 -72.87390 10583 ft 244 kts 219°
2026-05-06 20:06 40.83761 -72.88707 10343 ft 243 kts 219°
2026-05-06 20:06 40.82398 -72.90018 10105 ft 242 kts 219°
2026-05-06 20:06 40.81036 -72.91328 9866 ft 241 kts 219°
2026-05-06 20:06 40.79682 -72.92624 9650 ft 240 kts 219°
2026-05-06 20:07 40.78339 -72.93906 9415 ft 238 kts 219°
2026-05-06 20:07 40.77003 -72.95180 9187 ft 237 kts 219°
2026-05-06 20:07 40.75653 -72.96467 8954 ft 242 kts 219°
2026-05-06 20:07 40.74290 -72.97771 8700 ft 242 kts 219°
2026-05-06 20:08 40.72927 -72.99076 8444 ft 242 kts 219°
2026-05-06 20:08 40.71573 -73.00391 8180 ft 241 kts 223°
2026-05-06 20:08 40.70513 -73.02054 7943 ft 237 kts 240°
2026-05-06 20:08 40.69958 -73.04090 7685 ft 239 kts 257°
2026-05-06 20:09 40.69969 -73.06291 7432 ft 246 kts 274°
2026-05-06 20:09 40.70574 -73.08439 7193 ft 255 kts 289°
2026-05-06 20:09 40.71394 -73.10514 6941 ft 255 kts 289°
2026-05-06 20:09 40.72210 -73.12584 6699 ft 254 kts 289°
2026-05-06 20:10 40.73023 -73.14647 6463 ft 253 kts 289°
2026-05-06 20:10 40.73833 -73.16706 6227 ft 252 kts 289°
2026-05-06 20:10 40.74637 -73.18753 5995 ft 251 kts 289°
2026-05-06 20:10 40.75405 -73.20816 5738 ft 250 kts 287°
2026-05-06 20:11 40.76134 -73.22899 5511 ft 249 kts 287°
2026-05-06 20:11 40.76852 -73.24979 5327 ft 249 kts 287°
2026-05-06 20:11 40.77565 -73.27053 5131 ft 248 kts 287°
2026-05-06 20:11 40.78274 -73.29125 4924 ft 247 kts 287°
2026-05-06 20:12 40.78971 -73.31189 4747 ft 246 kts 287°
2026-05-06 20:12 40.79648 -73.33257 4551 ft 245 kts 287°
2026-05-06 20:12 40.80319 -73.35318 4340 ft 244 kts 287°
2026-05-06 20:12 40.80987 -73.37368 4138 ft 243 kts 287°
2026-05-06 20:13 40.81654 -73.39412 3930 ft 242 kts 287°
2026-05-06 20:13 40.82318 -73.41445 3728 ft 241 kts 287°
2026-05-06 20:13 40.82978 -73.43456 3533 ft 234 kts 287°
2026-05-06 20:13 40.83619 -73.45388 3347 ft 224 kts 287°
2026-05-06 20:14 40.84225 -73.47208 3153 ft 209 kts 284°
2026-05-06 20:14 40.84475 -73.49005 2962 ft 194 kts 269°
2026-05-06 20:14 40.84536 -73.50769 2790 ft 191 kts 267°
2026-05-06 20:14 40.84578 -73.52517 2601 ft 190 kts 267°
2026-05-06 20:15 40.84328 -73.54179 2424 ft 186 kts 239°
2026-05-06 20:15 40.83509 -73.55501 2254 ft 187 kts 229°
2026-05-06 20:15 40.82611 -73.56686 2085 ft 178 kts 227°
2026-05-06 20:15 40.81743 -73.57808 2021 ft 172 kts 226°
2026-05-06 20:16 40.80899 -73.58913 1989 ft 171 kts 227°
2026-05-06 20:16 40.80067 -73.60000 1983 ft 165 kts 227°
2026-05-06 20:16 40.79270 -73.61081 1988 ft 164 kts 228°
2026-05-06 20:16 40.78470 -73.62139 1991 ft 163 kts 227°
2026-05-06 20:17 40.77662 -73.63198 2003 ft 164 kts 227°
2026-05-06 20:17 40.76868 -73.64272 2004 ft 163 kts 227°
2026-05-06 20:17 40.76083 -73.65346 2010 ft 164 kts 228°
2026-05-06 20:17 40.75268 -73.66454 2007 ft 170 kts 227°
2026-05-06 20:18 40.74428 -73.67574 2002 ft 173 kts 225°
2026-05-06 20:18 40.74107 -73.67907 2007 ft 174 kts 218°
2026-05-06 20:19 40.69669 -73.71453 1247 ft 146 kts 213°
2026-05-06 20:19 40.68822 -73.72117 1049 ft 138 kts 215°
2026-05-06 20:19 40.68010 -73.72754 855 ft 135 kts 211°
2026-05-06 20:20 40.67207 -73.73382 682 ft 134 kts 210°
2026-05-06 20:20 40.66414 -73.74010 519 ft 132 kts 210°
2026-05-06 20:20 40.65629 -73.74629 340 ft 131 kts 210°
2026-05-06 20:20 40.64833 -73.75239 137 ft 134 kts 209°
2026-05-06 20:21 40.64044 -73.75862 38 ft 127 kts 210°
2026-05-06 20:21 40.63365 -73.76392 23 ft 91 kts 211°
2026-05-06 20:21 40.62982 -73.76690 21 ft 40 kts 210°
2026-05-06 20:21 40.62826 -73.76813 21 ft 21 kts 210°
2026-05-06 20:22 40.62683 -73.76925 24 ft 28 kts 212°
2026-05-06 20:22 40.62573 -73.77079 27 ft 22 kts 267°
2026-05-06 20:22 40.62638 -73.77237 28 ft 19 kts 337°
2026-05-06 20:22 40.62759 -73.77235 25 ft 18 kts 25°
2026-05-06 20:23 40.62863 -73.77154 24 ft 17 kts 32°
2026-05-06 20:23 40.62981 -73.77112 24 ft 18 kts 331°
2026-05-06 20:23 40.63060 -73.77258 28 ft 26 kts 300°
2026-05-06 20:23 40.63166 -73.77492 30 ft 30 kts 300°
2026-05-06 20:24 40.63271 -73.77731 27 ft 25 kts 299°
2026-05-06 20:24 40.63343 -73.77836 27 ft 14 kts 350°
2026-05-06 20:24 40.63421 -73.77778 26 ft 15 kts 35°
2026-05-06 20:24 40.63537 -73.77684 21 ft 22 kts 31°
2026-05-06 20:25 40.63668 -73.77642 20 ft 19 kts 341°
2026-05-06 20:25 40.63782 -73.77692 23 ft 15 kts 323°
2026-05-06 20:25 40.63866 -73.77770 23 ft 14 kts 325°
2026-05-06 20:25 40.63946 -73.77753 25 ft 14 kts 51°
2026-05-06 20:26 40.64006 -73.77610 23 ft 19 kts 62°
2026-05-06 20:26 40.64100 -73.77510 23 ft 17 kts
2026-05-06 20:26 40.64206 -73.77571 23 ft 17 kts 330°
2026-05-06 20:26 40.64272 -73.77620 23 ft 5 kts 331°
2026-05-06 20:27 40.64284 -73.77644 23 ft 3 kts 275°
2026-05-06 20:27 40.64275 -73.77669 23 ft 3 kts 242°
2026-05-06 20:27 40.64266 -73.77692 24 ft 3 kts 242°
2026-05-06 20:27 40.64264 -73.77696 23 ft 0 kts 242°
2026-05-06 20:30 40.64264 -73.77695 23 ft 0 kts 242°
2026-05-06 20:44 40.64265 -73.77695 42 ft 0 kts 242°
2026-05-06 20:50 40.64265 -73.77694 42 ft 0 kts 242°